Time,TemperatureF,DewpointF,PressureIn,WindDirection,WindDirectionDegrees,WindSpeedMPH,WindSpeedGustMPH,Humidity,HourlyPrecipIn,Conditions,Clouds,dailyrainin,SoftwareType,DateUTC
2013-03-24 00:00:00,31.5,12.1,29.32,NNE,19,0.0,0.0,44,0.00,,CLR,0.00,VWS V14.00,2013-03-24 07:00:00,
2013-03-24 00:05:00,31.1,11.8,29.32,NNE,19,0.0,0.0,44,0.00,,CLR,0.00,VWS V14.00,2013-03-24 07:05:00,
2013-03-24 00:11:00,30.9,11.6,29.32,NNE,19,0.0,0.0,44,0.00,,CLR,0.00,VWS V14.00,2013-03-24 07:11:00,
2013-03-24 00:17:00,30.6,11.2,29.32,NNE,19,0.0,0.0,44,0.00,,CLR,0.00,VWS V14.00,2013-03-24 07:17:00,
2013-03-24 00:22:00,30.2,10.9,29.32,NNE,19,0.0,0.0,44,0.00,,CLR,0.00,VWS V14.00,2013-03-24 07:22:00,
2013-03-24 00:27:00,30.0,10.8,29.32,NNE,19,0.0,0.0,44,0.00,,CLR,0.00,VWS V14.00,2013-03-24 07:27:00,
2013-03-24 00:33:00,29.8,10.6,29.32,NNE,19,0.0,0.0,44,0.00,,CLR,0.00,VWS V14.00,2013-03-24 07:33:00,
2013-03-24 00:38:00,29.8,11.1,29.32,NNE,19,0.0,0.0,45,0.00,,CLR,0.00,VWS V14.00,2013-03-24 07:38:00,
2013-03-24 00:44:00,29.8,11.1,29.32,NNE,19,0.0,0.0,45,0.00,,CLR,0.00,VWS V14.00,2013-03-24 07:44:00,
2013-03-24 00:49:00,29.7,10.9,29.32,NNE,19,0.0,0.0,45,0.00,,CLR,0.00,VWS V14.00,2013-03-24 07:49:00,
2013-03-24 00:54:00,29.7,11.4,29.32,NNE,19,0.0,0.0,46,0.00,,CLR,0.00,VWS V14.00,2013-03-24 07:54:00,
2013-03-24 00:59:00,29.7,11.4,29.32,NNE,19,0.0,0.0,46,0.00,,CLR,0.00,VWS V14.00,2013-03-24 07:59:00,
2013-03-24 01:05:00,29.7,11.4,29.32,NNE,19,0.0,0.0,46,0.00,,CLR,0.00,VWS V14.00,2013-03-24 08:05:00,
2013-03-24 01:10:00,29.7,11.4,29.32,NNE,19,0.0,0.0,46,0.00,,CLR,0.00,VWS V14.00,2013-03-24 08:10:00,
2013-03-24 01:16:00,29.7,11.9,29.32,NNE,19,0.0,0.0,47,0.00,,CLR,0.00,VWS V14.00,2013-03-24 08:16:00,
2013-03-24 01:22:00,29.7,11.9,29.32,NNE,19,0.0,0.0,47,0.00,,CLR,0.00,VWS V14.00,2013-03-24 08:22:00,
2013-03-24 01:27:00,29.7,11.9,29.32,NNE,19,0.0,0.0,47,0.00,,CLR,0.00,VWS V14.00,2013-03-24 08:27:00,
2013-03-24 01:33:00,29.5,11.8,29.32,NNE,19,0.0,0.0,47,0.00,,CLR,0.00,VWS V14.00,2013-03-24 08:33:00,
2013-03-24 01:38:00,29.5,12.2,29.32,NNE,19,0.0,0.0,48,0.00,,CLR,0.00,VWS V14.00,2013-03-24 08:38:00,
2013-03-24 01:44:00,29.1,11.9,29.32,NNE,19,0.0,0.0,48,0.00,,CLR,0.00,VWS V14.00,2013-03-24 08:44:00,
2013-03-24 01:50:00,28.9,11.7,29.32,NNE,19,0.0,0.0,48,0.00,,CLR,0.00,VWS V14.00,2013-03-24 08:50:00,
2013-03-24 01:56:00,28.8,11.6,29.32,NNE,19,0.0,0.0,48,0.00,,CLR,0.00,VWS V14.00,2013-03-24 08:56:00,
2013-03-24 02:02:00,28.6,11.4,29.32,NNE,19,0.0,0.0,48,0.00,,CLR,0.00,VWS V14.00,2013-03-24 09:02:00,
2013-03-24 02:08:00,28.6,11.9,29.32,NNE,19,0.0,0.0,49,0.00,,CLR,0.00,VWS V14.00,2013-03-24 09:08:00,
2013-03-24 02:13:00,28.4,11.7,29.32,NNE,19,0.0,0.0,49,0.00,,CLR,0.00,VWS V14.00,2013-03-24 09:13:00,
2013-03-24 02:19:00,28.2,11.5,29.32,NNE,19,0.0,0.0,49,0.00,,CLR,0.00,VWS V14.00,2013-03-24 09:19:00,
2013-03-24 02:24:00,28.4,12.1,29.32,NNE,19,0.0,0.0,50,0.00,,CLR,0.00,VWS V14.00,2013-03-24 09:24:00,
2013-03-24 02:30:00,28.6,12.3,29.32,NNE,19,0.0,0.0,50,0.00,,CLR,0.00,VWS V14.00,2013-03-24 09:30:00,
2013-03-24 02:36:00,28.4,12.1,29.32,NNE,19,0.0,0.0,50,0.00,,CLR,0.00,VWS V14.00,2013-03-24 09:36:00,
2013-03-24 02:41:00,28.2,12.4,29.32,NNE,19,0.0,0.0,51,0.00,,CLR,0.00,VWS V14.00,2013-03-24 09:41:00,
2013-03-24 02:47:00,28.0,12.3,29.32,NNE,19,0.0,0.0,51,0.00,,CLR,0.00,VWS V14.00,2013-03-24 09:47:00,
2013-03-24 02:52:00,28.0,12.3,29.32,NNE,19,0.0,0.0,51,0.00,,CLR,0.00,VWS V14.00,2013-03-24 09:52:00,
2013-03-24 02:58:00,28.0,12.3,29.32,NNE,19,0.0,0.0,51,0.00,,CLR,0.00,VWS V14.00,2013-03-24 09:58:00,
2013-03-24 03:04:00,28.0,12.3,29.32,NNE,19,0.0,0.0,51,0.00,,CLR,0.00,VWS V14.00,2013-03-24 10:04:00,
2013-03-24 03:09:00,28.0,12.3,29.32,NNE,19,0.0,0.0,51,0.00,,CLR,0.00,VWS V14.00,2013-03-24 10:09:00,
2013-03-24 03:14:00,28.0,12.7,29.32,NNE,19,0.0,0.0,52,0.00,,CLR,0.00,VWS V14.00,2013-03-24 10:14:00,
2013-03-24 03:19:00,27.9,12.5,29.32,NNE,19,0.0,0.0,52,0.00,,CLR,0.00,VWS V14.00,2013-03-24 10:19:00,
2013-03-24 03:25:00,27.9,12.5,29.32,NNE,19,0.0,0.0,52,0.00,,CLR,0.00,VWS V14.00,2013-03-24 10:25:00,
2013-03-24 03:30:00,27.9,12.5,29.32,NNE,19,0.0,0.0,52,0.00,,CLR,0.00,VWS V14.00,2013-03-24 10:30:00,
2013-03-24 03:36:00,27.9,12.5,29.32,NNE,19,0.0,0.0,52,0.00,,CLR,0.00,VWS V14.00,2013-03-24 10:36:00,
2013-03-24 03:41:00,27.9,12.5,29.32,NNE,19,0.0,0.0,52,0.00,,CLR,0.00,VWS V14.00,2013-03-24 10:41:00,
2013-03-24 03:48:00,27.9,12.5,29.32,NNE,19,0.0,0.0,52,0.00,,CLR,0.00,VWS V14.00,2013-03-24 10:48:00,
2013-03-24 03:54:00,27.9,13.0,29.32,NNE,19,0.0,0.0,53,0.00,,CLR,0.00,VWS V14.00,2013-03-24 10:54:00,
2013-03-24 03:59:00,28.0,13.1,29.32,NNE,19,0.0,0.0,53,0.00,,CLR,0.00,VWS V14.00,2013-03-24 10:59:00,
2013-03-24 04:05:00,28.0,13.1,29.32,NNE,19,0.0,0.0,53,0.00,,CLR,0.00,VWS V14.00,2013-03-24 11:05:00,
2013-03-24 04:10:00,28.0,13.1,29.32,NNE,19,0.0,0.0,53,0.00,,CLR,0.00,VWS V14.00,2013-03-24 11:10:00,
2013-03-24 04:16:00,27.9,13.0,29.32,NNE,19,0.0,0.0,53,0.00,,CLR,0.00,VWS V14.00,2013-03-24 11:16:00,
2013-03-24 04:22:00,28.0,13.1,29.32,NNE,19,0.0,0.0,53,0.00,,CLR,0.00,VWS V14.00,2013-03-24 11:22:00,
2013-03-24 04:28:00,27.9,13.0,29.32,NNE,19,0.0,0.0,53,0.00,,CLR,0.00,VWS V14.00,2013-03-24 11:28:00,
2013-03-24 04:33:00,27.9,13.4,29.32,NNE,19,0.0,0.0,54,0.00,,CLR,0.00,VWS V14.00,2013-03-24 11:33:00,
2013-03-24 04:39:00,27.7,13.2,29.32,NNE,19,0.0,0.0,54,0.00,,CLR,0.00,VWS V14.00,2013-03-24 11:39:00,
2013-03-24 04:44:00,27.7,13.2,29.32,NNE,19,0.0,0.0,54,0.00,,CLR,0.00,VWS V14.00,2013-03-24 11:44:00,
2013-03-24 04:49:00,27.7,13.2,29.32,NNE,19,0.0,0.0,54,0.00,,CLR,0.00,VWS V14.00,2013-03-24 11:49:00,
2013-03-24 04:54:00,27.7,13.2,29.32,NNE,19,0.0,0.0,54,0.00,,CLR,0.00,VWS V14.00,2013-03-24 11:54:00,
2013-03-24 05:00:00,27.5,13.1,29.32,NNE,19,0.0,0.0,54,0.00,,CLR,0.00,VWS V14.00,2013-03-24 12:00:00,
2013-03-24 05:05:00,27.5,13.1,29.32,NNE,19,0.0,0.0,54,0.00,,CLR,0.00,VWS V14.00,2013-03-24 12:05:00,
2013-03-24 05:11:00,27.3,12.9,29.32,NNE,19,0.0,0.0,54,0.00,,CLR,0.00,VWS V14.00,2013-03-24 12:11:00,
2013-03-24 05:18:00,27.3,13.3,29.32,NNE,19,0.0,0.0,55,0.00,,CLR,0.00,VWS V14.00,2013-03-24 12:18:00,
2013-03-24 05:24:00,27.3,13.3,29.32,NNE,19,0.0,0.0,55,0.00,,CLR,0.00,VWS V14.00,2013-03-24 12:24:00,
2013-03-24 05:29:00,27.1,13.1,29.32,NNE,19,0.0,0.0,55,0.00,,CLR,0.00,VWS V14.00,2013-03-24 12:29:00,
2013-03-24 05:35:00,27.1,13.1,29.32,NNE,19,0.0,0.0,55,0.00,,CLR,0.00,VWS V14.00,2013-03-24 12:35:00,
2013-03-24 05:40:00,27.3,13.3,29.32,NNE,19,0.0,0.0,55,0.00,,CLR,0.00,VWS V14.00,2013-03-24 12:40:00,
2013-03-24 05:46:00,27.3,13.3,29.32,NNE,19,0.0,0.0,55,0.00,,CLR,0.00,VWS V14.00,2013-03-24 12:46:00,
2013-03-24 05:51:00,27.5,13.9,29.32,NNE,19,0.0,0.0,56,0.00,,CLR,0.00,VWS V14.00,2013-03-24 12:51:00,
2013-03-24 05:57:00,27.9,14.2,29.32,NNE,19,0.0,0.0,56,0.00,,CLR,0.00,VWS V14.00,2013-03-24 12:57:00,
2013-03-24 06:02:00,28.2,14.6,29.32,NNE,19,0.0,0.0,56,0.00,,CLR,0.00,VWS V14.00,2013-03-24 13:02:00,
2013-03-24 06:08:00,28.2,14.6,29.32,NNE,19,0.0,0.0,56,0.00,,CLR,0.00,VWS V14.00,2013-03-24 13:08:00,
2013-03-24 06:14:00,28.2,14.6,29.32,NNE,19,0.0,0.0,56,0.00,,CLR,0.00,VWS V14.00,2013-03-24 13:14:00,
2013-03-24 06:19:00,28.4,14.7,29.32,NNE,19,0.0,0.0,56,0.00,,CLR,0.00,VWS V14.00,2013-03-24 13:19:00,
2013-03-24 06:25:00,28.6,14.9,29.32,NNE,19,0.0,0.0,56,0.00,,CLR,0.00,VWS V14.00,2013-03-24 13:25:00,
2013-03-24 06:31:00,28.6,14.9,29.32,NNE,19,0.0,0.0,56,0.00,,CLR,0.00,VWS V14.00,2013-03-24 13:31:00,
2013-03-24 06:36:00,28.4,14.7,29.32,NNE,19,0.0,0.0,56,0.00,,CLR,0.00,VWS V14.00,2013-03-24 13:36:00,
2013-03-24 06:42:00,28.2,14.6,29.32,NNE,19,0.0,0.0,56,0.00,,CLR,0.00,VWS V14.00,2013-03-24 13:42:00,
2013-03-24 06:48:00,28.0,14.8,29.32,NNE,19,0.0,0.0,57,0.00,,CLR,0.00,VWS V14.00,2013-03-24 13:48:00,
2013-03-24 06:53:00,28.0,14.8,29.32,NNE,19,0.0,0.0,57,0.00,,CLR,0.00,VWS V14.00,2013-03-24 13:53:00,
2013-03-24 06:59:00,28.0,14.8,29.32,NNE,19,0.0,0.0,57,0.00,,CLR,0.00,VWS V14.00,2013-03-24 13:59:00,
2013-03-24 07:04:00,27.9,14.6,29.32,NNE,19,0.0,0.0,57,0.00,,CLR,0.00,VWS V14.00,2013-03-24 14:04:00,
2013-03-24 07:10:00,27.7,14.4,29.32,NNE,19,0.0,0.0,57,0.00,,CLR,0.00,VWS V14.00,2013-03-24 14:10:00,
2013-03-24 07:16:00,27.7,14.4,29.32,NNE,19,0.0,0.0,57,0.00,,CLR,0.00,VWS V14.00,2013-03-24 14:16:00,
2013-03-24 07:21:00,27.7,14.4,29.32,NNE,19,0.0,0.0,57,0.00,,CLR,0.00,VWS V14.00,2013-03-24 14:21:00,
2013-03-24 07:27:00,27.7,14.4,29.32,NNE,19,0.0,0.0,57,0.00,,CLR,0.00,VWS V14.00,2013-03-24 14:27:00,
2013-03-24 07:32:00,27.9,14.6,29.32,NNE,19,0.0,0.0,57,0.00,,CLR,0.00,VWS V14.00,2013-03-24 14:32:00,
2013-03-24 07:38:00,28.0,14.8,29.32,NNE,19,0.0,0.0,57,0.00,,CLR,0.00,VWS V14.00,2013-03-24 14:38:00,
2013-03-24 07:43:00,28.2,15.0,29.32,NNE,19,0.0,0.0,57,0.00,,CLR,0.00,VWS V14.00,2013-03-24 14:43:00,
2013-03-24 07:49:00,28.6,15.3,29.32,NNE,19,0.0,0.0,57,0.00,,CLR,0.00,VWS V14.00,2013-03-24 14:49:00,
2013-03-24 07:54:00,28.8,15.5,29.32,NNE,19,0.0,0.0,57,0.00,,CLR,0.00,VWS V14.00,2013-03-24 14:54:00,
2013-03-24 07:59:00,29.3,16.0,29.32,NNE,19,0.0,0.0,57,0.00,,CLR,0.00,VWS V14.00,2013-03-24 14:59:00,
2013-03-24 08:05:00,30.0,17.0,29.32,NNE,19,0.0,0.0,58,0.00,,CLR,0.00,VWS V14.00,2013-03-24 15:05:00,
2013-03-24 08:10:00,30.4,17.4,29.32,NNE,19,0.0,0.0,58,0.00,,CLR,0.00,VWS V14.00,2013-03-24 15:10:00,
2013-03-24 08:16:00,31.3,18.2,29.32,NNE,19,0.0,0.0,58,0.00,,CLR,0.00,VWS V14.00,2013-03-24 15:16:00,
2013-03-24 08:21:00,31.8,18.7,29.32,NNE,19,0.0,0.0,58,0.00,,CLR,0.00,VWS V14.00,2013-03-24 15:21:00,
2013-03-24 08:26:00,32.2,19.1,29.32,NNE,19,0.0,0.0,58,0.00,,CLR,0.00,VWS V14.00,2013-03-24 15:26:00,
2013-03-24 08:32:00,32.7,20.0,29.32,NNE,19,0.0,0.0,59,0.00,,CLR,0.00,VWS V14.00,2013-03-24 15:32:00,
2013-03-24 08:38:00,33.1,20.3,29.32,NNE,19,0.0,0.0,59,0.00,,CLR,0.00,VWS V14.00,2013-03-24 15:38:00,
2013-03-24 08:44:00,33.3,20.5,29.32,NNE,19,0.0,0.0,59,0.00,,CLR,0.00,VWS V14.00,2013-03-24 15:44:00,
2013-03-24 08:49:00,33.6,20.8,29.32,NNE,19,0.0,0.0,59,0.00,,CLR,0.00,VWS V14.00,2013-03-24 15:49:00,
2013-03-24 08:55:00,34.0,21.2,29.32,NNE,19,0.0,0.0,59,0.00,,CLR,0.00,VWS V14.00,2013-03-24 15:55:00,
2013-03-24 09:01:00,34.2,21.3,29.32,NNE,19,0.0,0.0,59,0.00,,CLR,0.00,VWS V14.00,2013-03-24 16:01:00,
2013-03-24 09:06:00,34.5,21.7,29.32,NNE,19,0.0,0.0,59,0.00,,CLR,0.00,VWS V14.00,2013-03-24 16:06:00,
2013-03-24 09:12:00,35.1,22.2,29.32,NNE,19,0.0,0.0,59,0.00,,CLR,0.00,VWS V14.00,2013-03-24 16:12:00,
2013-03-24 09:17:00,35.6,22.7,29.32,NE,53,0.0,0.0,59,0.00,,CLR,0.00,VWS V14.00,2013-03-24 16:17:00,
2013-03-24 09:23:00,36.3,23.4,29.32,NE,53,0.0,0.0,59,0.00,,CLR,0.00,VWS V14.00,2013-03-24 16:23:00,
2013-03-24 09:28:00,36.9,23.9,29.32,NE,53,0.0,0.0,59,0.00,,CLR,0.00,VWS V14.00,2013-03-24 16:28:00,
2013-03-24 09:34:00,37.9,24.5,29.32,NE,53,0.0,0.0,58,0.00,,CLR,0.00,VWS V14.00,2013-03-24 16:34:00,
2013-03-24 09:40:00,38.7,24.8,29.32,NW,324,0.0,0.0,57,0.00,,CLR,0.00,VWS V14.00,2013-03-24 16:40:00,
2013-03-24 09:45:00,39.2,24.4,29.32,NNE,29,0.0,0.0,55,0.00,,CLR,0.00,VWS V14.00,2013-03-24 16:45:00,
2013-03-24 09:51:00,39.9,24.2,29.32,NNE,29,0.0,0.0,53,0.00,,CLR,0.00,VWS V14.00,2013-03-24 16:51:00,
2013-03-24 09:57:00,40.5,23.8,29.32,NNW,331,0.0,0.0,51,0.00,,CLR,0.00,VWS V14.00,2013-03-24 16:57:00,
2013-03-24 10:02:00,41.0,23.3,29.32,NW,325,2.7,3.1,49,0.00,,CLR,0.00,VWS V14.00,2013-03-24 17:02:00,
2013-03-24 10:07:00,41.5,22.8,29.32,NNW,327,0.0,0.0,47,0.00,,CLR,0.00,VWS V14.00,2013-03-24 17:07:00,
2013-03-24 10:13:00,42.3,21.9,29.32,NE,41,3.1,3.1,44,0.00,,CLR,0.00,VWS V14.00,2013-03-24 17:13:00,
2013-03-24 10:19:00,43.2,21.6,29.32,NNW,341,0.0,0.0,42,0.00,,CLR,0.00,VWS V14.00,2013-03-24 17:19:00,
2013-03-24 10:25:00,43.7,21.0,29.32,NNW,341,0.0,0.0,40,0.00,,CLR,0.00,VWS V14.00,2013-03-24 17:25:00,
2013-03-24 10:30:00,44.1,20.7,29.32,NNW,338,0.0,0.0,39,0.00,,CLR,0.00,VWS V14.00,2013-03-24 17:30:00,
2013-03-24 10:36:00,44.4,20.4,29.32,NW,324,0.0,0.0,38,0.00,,CLR,0.00,VWS V14.00,2013-03-24 17:36:00,
2013-03-24 10:41:00,44.6,20.0,29.32,NNE,25,0.0,0.0,37,0.00,,CLR,0.00,VWS V14.00,2013-03-24 17:41:00,
2013-03-24 10:46:00,44.8,18.8,29.32,NW,315,2.2,2.7,35,0.00,,CLR,0.00,VWS V14.00,2013-03-24 17:46:00,
2013-03-24 10:51:00,45.0,17.6,29.32,NW,309,2.7,4.0,33,0.00,,CLR,0.00,VWS V14.00,2013-03-24 17:51:00,
2013-03-24 10:57:00,45.0,16.9,29.32,NW,312,0.0,0.0,32,0.00,,CLR,0.00,VWS V14.00,2013-03-24 17:57:00,
2013-03-24 11:03:00,45.1,16.3,29.32,WSW,251,0.0,0.0,31,0.00,,OVC110,0.00,VWS V14.00,2013-03-24 18:03:00,
2013-03-24 11:09:00,45.3,16.5,29.32,NNW,341,2.7,3.1,31,0.00,,OVC110,0.00,VWS V14.00,2013-03-24 18:09:00,
2013-03-24 11:14:00,45.5,15.9,29.32,NNW,334,0.0,0.0,30,0.00,,OVC110,0.00,VWS V14.00,2013-03-24 18:14:00,
2013-03-24 11:20:00,45.7,16.0,29.32,WSW,246,0.0,0.0,30,0.00,,OVC110,0.00,VWS V14.00,2013-03-24 18:20:00,
2013-03-24 11:25:00,46.0,16.4,29.32,SW,221,0.0,0.0,30,0.00,,OVC110,0.00,VWS V14.00,2013-03-24 18:25:00,
2013-03-24 11:30:00,46.4,16.7,29.32,West,278,0.0,0.0,30,0.00,,OVC110,0.00,VWS V14.00,2013-03-24 18:30:00,
2013-03-24 11:35:00,46.6,16.8,29.32,SSW,207,0.0,2.2,30,0.00,,OVC110,0.00,VWS V14.00,2013-03-24 18:35:00,
2013-03-24 11:41:00,46.8,17.0,29.32,SW,222,0.0,2.7,30,0.00,,OVC110,0.00,VWS V14.00,2013-03-24 18:41:00,
2013-03-24 11:47:00,47.1,16.5,29.32,WSW,240,0.0,0.0,29,0.00,,OVC110,0.00,VWS V14.00,2013-03-24 18:47:00,
2013-03-24 11:53:00,47.5,16.8,29.32,WSW,240,0.0,0.0,29,0.00,,OVC110,0.00,VWS V14.00,2013-03-24 18:53:00,
2013-03-24 11:58:00,47.8,17.1,29.32,NE,54,0.0,2.2,29,0.00,,OVC110,0.00,VWS V14.00,2013-03-24 18:58:00,
2013-03-24 12:03:00,48.2,16.6,29.32,West,277,0.0,0.0,28,0.00,,BKN100,0.00,VWS V14.00,2013-03-24 19:03:00,
2013-03-24 12:09:00,48.6,17.0,29.32,WSW,243,0.0,0.0,28,0.00,,BKN100,0.00,VWS V14.00,2013-03-24 19:09:00,
2013-03-24 12:14:00,48.9,17.3,29.32,WNW,286,0.0,2.7,28,0.00,,BKN100,0.00,VWS V14.00,2013-03-24 19:14:00,
2013-03-24 12:20:00,49.3,17.6,29.32,SW,235,3.6,3.6,28,0.00,,BKN100,0.00,VWS V14.00,2013-03-24 19:20:00,
2013-03-24 12:27:00,50.2,17.5,29.32,West,260,0.0,0.0,27,0.00,,BKN100,0.00,VWS V14.00,2013-03-24 19:27:00,
2013-03-24 12:33:00,51.3,18.4,29.32,SSE,155,2.7,3.6,27,0.00,,BKN100,0.00,VWS V14.00,2013-03-24 19:33:00,
2013-03-24 12:38:00,52.7,18.8,29.32,SE,136,4.9,6.3,26,0.00,,BKN100,0.00,VWS V14.00,2013-03-24 19:38:00,
2013-03-24 12:44:00,53.6,18.6,29.32,ESE,120,2.7,3.6,25,0.00,,BKN100,0.00,VWS V14.00,2013-03-24 19:44:00,
2013-03-24 12:49:00,54.1,17.2,29.32,ESE,118,3.1,3.6,23,0.00,,BKN100,0.00,VWS V14.00,2013-03-24 19:49:00,
2013-03-24 12:55:00,54.5,17.5,29.32,South,176,3.6,3.6,23,0.00,,BKN100,0.00,VWS V14.00,2013-03-24 19:55:00,
2013-03-24 13:01:00,54.3,17.3,29.32,SSW,197,5.4,6.3,23,0.00,,BKN100,0.00,VWS V14.00,2013-03-24 20:01:00,
2013-03-24 13:06:00,53.8,13.7,29.32,ENE,72,4.0,4.0,20,0.00,,SCT110,0.00,VWS V14.00,2013-03-24 20:06:00,
2013-03-24 13:12:00,53.6,13.5,29.32,South,172,3.1,3.6,20,0.00,,SCT110,0.00,VWS V14.00,2013-03-24 20:12:00,
2013-03-24 13:17:00,53.4,14.5,29.32,SSE,168,3.1,4.0,21,0.00,,SCT110,0.00,VWS V14.00,2013-03-24 20:17:00,
2013-03-24 13:23:00,53.4,14.5,29.32,NE,38,2.7,4.0,21,0.00,,SCT110,0.00,VWS V14.00,2013-03-24 20:23:00,
2013-03-24 13:29:00,53.4,14.5,29.32,NE,55,0.0,3.6,21,0.00,,SCT110,0.00,VWS V14.00,2013-03-24 20:29:00,
2013-03-24 13:34:00,53.6,13.5,29.32,ESE,123,0.0,2.2,20,0.00,,SCT110,0.00,VWS V14.00,2013-03-24 20:34:00,
2013-03-24 13:39:00,53.8,13.7,29.32,NE,45,3.6,4.0,20,0.00,,SCT110,0.00,VWS V14.00,2013-03-24 20:39:00,
2013-03-24 13:45:00,53.8,13.7,29.32,NE,50,3.1,3.6,20,0.00,,SCT110,0.00,VWS V14.00,2013-03-24 20:45:00,
2013-03-24 13:50:00,53.8,13.7,29.32,East,99,0.0,5.4,20,0.00,,SCT110,0.00,VWS V14.00,2013-03-24 20:50:00,
2013-03-24 13:55:00,53.8,13.7,29.32,ESE,120,2.7,3.1,20,0.00,,SCT110,0.00,VWS V14.00,2013-03-24 20:55:00,
2013-03-24 14:01:00,54.0,13.8,29.32,ENE,60,3.6,3.6,20,0.00,,SCT110,0.00,VWS V14.00,2013-03-24 21:01:00,
2013-03-24 14:07:00,54.1,14.0,29.32,SW,221,3.6,5.4,20,0.00,,OVC090,0.00,VWS V14.00,2013-03-24 21:07:00,
2013-03-24 14:12:00,54.3,14.1,29.32,ENE,73,2.7,3.6,20,0.00,,OVC090,0.00,VWS V14.00,2013-03-24 21:12:00,
2013-03-24 14:18:00,54.9,14.6,29.32,ESE,118,2.7,2.7,20,0.00,,OVC090,0.00,VWS V14.00,2013-03-24 21:18:00,
2013-03-24 14:23:00,55.6,15.2,29.32,NNE,17,3.1,4.0,20,0.00,,OVC090,0.00,VWS V14.00,2013-03-24 21:23:00,
2013-03-24 14:29:00,55.9,15.5,29.32,ESE,122,4.0,5.4,20,0.00,,OVC090,0.00,VWS V14.00,2013-03-24 21:29:00,
2013-03-24 14:34:00,56.7,16.1,29.32,ESE,106,5.4,5.4,20,0.00,,OVC090,0.00,VWS V14.00,2013-03-24 21:34:00,
2013-03-24 14:40:00,57.2,15.3,29.32,North,7,3.6,4.0,19,0.00,,OVC090,0.00,VWS V14.00,2013-03-24 21:40:00,
2013-03-24 14:46:00,57.4,15.5,29.32,ESE,114,2.7,4.0,19,0.00,,OVC090,0.00,VWS V14.00,2013-03-24 21:46:00,
2013-03-24 14:51:00,57.0,16.4,29.32,ESE,112,2.2,2.7,20,0.00,,OVC090,0.00,VWS V14.00,2013-03-24 21:51:00,
2013-03-24 14:56:00,56.8,16.2,29.32,SSW,197,2.2,3.1,20,0.00,,OVC090,0.00,VWS V14.00,2013-03-24 21:56:00,
2013-03-24 15:02:00,56.7,16.1,29.32,NNE,19,0.0,0.0,20,0.00,,OVC090,0.00,VWS V14.00,2013-03-24 22:02:00,
2013-03-24 15:07:00,56.3,15.8,29.32,NE,53,0.0,0.0,20,0.00,,BKN100,0.00,VWS V14.00,2013-03-24 22:07:00,
2013-03-24 15:12:00,56.1,15.6,29.32,ENE,67,2.7,3.6,20,0.00,,BKN100,0.00,VWS V14.00,2013-03-24 22:12:00,
2013-03-24 15:18:00,56.1,15.6,29.32,SE,145,0.0,2.7,20,0.00,,BKN100,0.00,VWS V14.00,2013-03-24 22:18:00,
2013-03-24 15:23:00,56.5,15.9,29.32,South,169,3.1,5.8,20,0.00,,BKN100,0.00,VWS V14.00,2013-03-24 22:23:00,
2013-03-24 15:29:00,56.7,16.1,29.32,ESE,116,2.7,3.6,20,0.00,,BKN100,0.00,VWS V14.00,2013-03-24 22:29:00,
2013-03-24 15:35:00,57.0,16.4,29.32,South,176,2.7,4.0,20,0.00,,BKN100,0.00,VWS V14.00,2013-03-24 22:35:00,
2013-03-24 15:40:00,57.4,15.5,29.32,SSW,212,0.0,6.3,19,0.00,,BKN100,0.00,VWS V14.00,2013-03-24 22:40:00,
2013-03-24 15:46:00,57.7,15.8,29.32,East,96,2.2,3.6,19,0.00,,BKN100,0.00,VWS V14.00,2013-03-24 22:46:00,
2013-03-24 15:53:00,57.9,15.9,29.32,ENE,57,2.2,4.0,19,0.00,,BKN100,0.00,VWS V14.00,2013-03-24 22:53:00,
2013-03-24 15:58:00,57.7,15.8,29.32,ESE,115,4.9,4.9,19,0.00,,BKN100,0.00,VWS V14.00,2013-03-24 22:58:00,
2013-03-24 16:04:00,57.6,15.6,29.32,SSW,200,5.4,5.4,19,0.00,,OVC100,0.00,VWS V14.00,2013-03-24 23:04:00,
2013-03-24 16:10:00,57.7,15.8,29.32,SSE,163,2.2,4.0,19,0.00,,OVC100,0.00,VWS V14.00,2013-03-24 23:10:00,
2013-03-24 16:15:00,57.9,15.9,29.32,SE,127,3.1,3.1,19,0.00,,OVC100,0.00,VWS V14.00,2013-03-24 23:15:00,
2013-03-24 16:21:00,58.3,16.2,29.32,ENE,63,2.7,4.0,19,0.00,,OVC100,0.00,VWS V14.00,2013-03-24 23:21:00,
2013-03-24 16:26:00,58.6,16.5,29.32,ENE,75,2.7,4.9,19,0.00,,OVC100,0.00,VWS V14.00,2013-03-24 23:26:00,
2013-03-24 16:32:00,58.3,16.2,29.32,ENE,59,6.3,6.3,19,0.00,,OVC100,0.00,VWS V14.00,2013-03-24 23:32:00,
2013-03-24 16:38:00,58.1,16.1,29.32,ESE,120,3.1,5.4,19,0.00,,OVC100,0.00,VWS V14.00,2013-03-24 23:38:00,
2013-03-24 16:43:00,57.9,15.9,29.32,NE,46,3.1,3.6,19,0.00,,OVC100,0.00,VWS V14.00,2013-03-24 23:43:00,
2013-03-24 16:49:00,57.6,15.6,29.32,SE,135,2.2,4.0,19,0.00,,OVC100,0.00,VWS V14.00,2013-03-24 23:49:00,
2013-03-24 16:54:00,57.0,16.4,29.32,ENE,57,0.0,2.7,20,0.00,,OVC100,0.00,VWS V14.00,2013-03-24 23:54:00,
2013-03-24 17:00:00,56.8,16.2,29.32,NE,56,2.7,4.9,20,0.00,,OVC100,0.00,VWS V14.00,2013-03-25 00:00:00,
2013-03-24 17:05:00,56.7,16.1,29.32,ESE,109,2.7,2.7,20,0.00,,BKN100,0.00,VWS V14.00,2013-03-25 00:05:00,
2013-03-24 17:11:00,56.5,15.9,29.32,SW,236,2.7,3.1,20,0.00,,BKN100,0.00,VWS V14.00,2013-03-25 00:11:00,
2013-03-24 17:17:00,56.1,15.6,29.32,ENE,61,0.0,4.0,20,0.00,,BKN100,0.00,VWS V14.00,2013-03-25 00:17:00,
2013-03-24 17:22:00,55.9,15.5,29.32,East,89,2.7,2.7,20,0.00,,BKN100,0.00,VWS V14.00,2013-03-25 00:22:00,
2013-03-24 17:28:00,55.6,15.2,29.32,ENE,68,2.2,3.1,20,0.00,,BKN100,0.00,VWS V14.00,2013-03-25 00:28:00,
2013-03-24 17:34:00,55.0,14.7,29.32,East,84,2.2,2.2,20,0.00,,BKN100,0.00,VWS V14.00,2013-03-25 00:34:00,
2013-03-24 17:39:00,54.7,14.4,29.32,SE,136,2.7,2.7,20,0.00,,BKN100,0.00,VWS V14.00,2013-03-25 00:39:00,
2013-03-24 17:45:00,54.5,14.3,29.32,North,9,0.0,2.2,20,0.00,,BKN100,0.00,VWS V14.00,2013-03-25 00:45:00,
2013-03-24 17:50:00,54.1,14.0,29.32,ENE,71,3.1,3.1,20,0.00,,BKN100,0.00,VWS V14.00,2013-03-25 00:50:00,
2013-03-24 17:56:00,54.0,13.8,29.32,ENE,71,0.0,0.0,20,0.00,,BKN100,0.00,VWS V14.00,2013-03-25 00:56:00,
2013-03-24 18:01:00,53.8,13.7,29.32,ENE,71,0.0,0.0,20,0.00,,OVC100,0.00,VWS V14.00,2013-03-25 01:01:00,
2013-03-24 18:07:00,53.6,13.5,29.32,ESE,110,0.0,2.7,20,0.00,,OVC100,0.00,VWS V14.00,2013-03-25 01:07:00,
2013-03-24 18:13:00,53.4,14.5,29.32,SE,127,0.0,2.2,21,0.00,,OVC100,0.00,VWS V14.00,2013-03-25 01:13:00,
2013-03-24 18:18:00,53.4,14.5,29.32,NE,47,0.0,0.0,21,0.00,,OVC100,0.00,VWS V14.00,2013-03-25 01:18:00,
2013-03-24 18:24:00,53.2,14.3,29.32,ENE,78,0.0,0.0,21,0.00,,OVC100,0.00,VWS V14.00,2013-03-25 01:24:00,
2013-03-24 18:30:00,53.1,14.2,29.32,ENE,78,0.0,0.0,21,0.00,,OVC100,0.00,VWS V14.00,2013-03-25 01:30:00,
2013-03-24 18:35:00,52.7,13.9,29.32,ENE,78,0.0,0.0,21,0.00,,OVC100,0.00,VWS V14.00,2013-03-25 01:35:00,
2013-03-24 18:41:00,52.3,13.6,29.32,SSW,211,0.0,0.0,21,0.00,,OVC100,0.00,VWS V14.00,2013-03-25 01:41:00,
2013-03-24 18:46:00,52.0,13.3,29.32,SW,219,0.0,0.0,21,0.00,,OVC100,0.00,VWS V14.00,2013-03-25 01:46:00,
2013-03-24 18:52:00,51.6,13.0,29.32,SW,230,3.1,3.1,21,0.00,,OVC100,0.00,VWS V14.00,2013-03-25 01:52:00,
2013-03-24 18:57:00,51.1,12.5,29.32,WSW,252,0.0,0.0,21,0.00,,OVC100,0.00,VWS V14.00,2013-03-25 01:57:00,
2013-03-24 19:03:00,50.7,12.2,29.32,NW,311,0.0,0.0,21,0.00,,OVC100,0.00,VWS V14.00,2013-03-25 02:03:00,
2013-03-24 19:08:00,50.2,11.8,29.32,NW,312,0.0,2.7,21,0.00,,OVC100,0.00,VWS V14.00,2013-03-25 02:08:00,
2013-03-24 19:14:00,50.0,11.6,29.32,NW,312,0.0,0.0,21,0.00,,OVC100,0.00,VWS V14.00,2013-03-25 02:14:00,
2013-03-24 19:19:00,49.3,11.0,29.32,NW,312,0.0,0.0,21,0.00,,OVC100,0.00,VWS V14.00,2013-03-25 02:19:00,
2013-03-24 19:24:00,48.7,10.6,29.32,NW,312,0.0,0.0,21,0.00,,OVC100,0.00,VWS V14.00,2013-03-25 02:24:00,
2013-03-24 19:30:00,48.0,11.0,29.32,NW,312,0.0,0.0,22,0.00,,OVC100,0.00,VWS V14.00,2013-03-25 02:30:00,
2013-03-24 19:35:00,47.3,12.4,29.32,NNE,12,0.0,2.7,24,0.00,,OVC100,0.00,VWS V14.00,2013-03-25 02:35:00,
2013-03-24 19:41:00,46.6,11.7,29.32,NNE,12,0.0,0.0,24,0.00,,OVC100,0.00,VWS V14.00,2013-03-25 02:41:00,
2013-03-24 19:47:00,46.0,12.2,29.32,NNE,12,0.0,0.0,25,0.00,,OVC100,0.00,VWS V14.00,2013-03-25 02:47:00,
2013-03-24 19:52:00,45.1,11.4,29.32,NNE,12,0.0,0.0,25,0.00,,OVC100,0.00,VWS V14.00,2013-03-25 02:52:00,
2013-03-24 19:58:00,44.6,12.7,29.32,NNE,12,0.0,0.0,27,0.00,,OVC100,0.00,VWS V14.00,2013-03-25 02:58:00,
2013-03-24 20:03:00,44.1,13.1,29.32,NNE,12,0.0,0.0,28,0.00,,SCT070,0.00,VWS V14.00,2013-03-25 03:03:00,
2013-03-24 20:08:00,43.5,12.6,29.32,NNE,12,0.0,0.0,28,0.00,,SCT070,0.00,VWS V14.00,2013-03-25 03:08:00,
2013-03-24 20:13:00,43.2,12.3,29.32,NNE,12,0.0,0.0,28,0.00,,SCT070,0.00,VWS V14.00,2013-03-25 03:13:00,
2013-03-24 20:19:00,43.0,12.9,29.32,NNE,12,0.0,0.0,29,0.00,,SCT070,0.00,VWS V14.00,2013-03-25 03:19:00,
2013-03-24 20:24:00,43.0,12.9,29.32,NNE,12,0.0,0.0,29,0.00,,SCT070,0.00,VWS V14.00,2013-03-25 03:24:00,
2013-03-24 20:29:00,42.8,12.8,29.32,NNE,12,0.0,0.0,29,0.00,,SCT070,0.00,VWS V14.00,2013-03-25 03:29:00,
2013-03-24 20:34:00,42.8,12.8,29.32,NNE,12,0.0,0.0,29,0.00,,SCT070,0.00,VWS V14.00,2013-03-25 03:34:00,
2013-03-24 20:40:00,43.0,13.7,29.32,NNE,12,0.0,0.0,30,0.00,,SCT070,0.00,VWS V14.00,2013-03-25 03:40:00,
2013-03-24 20:45:00,43.0,13.7,29.32,NNE,12,0.0,0.0,30,0.00,,SCT070,0.00,VWS V14.00,2013-03-25 03:45:00,
2013-03-24 20:51:00,43.0,14.4,29.32,NNE,12,0.0,0.0,31,0.00,,SCT070,0.00,VWS V14.00,2013-03-25 03:51:00,
2013-03-24 20:57:00,43.2,14.6,29.32,NNE,12,0.0,0.0,31,0.00,,SCT070,0.00,VWS V14.00,2013-03-25 03:57:00,
2013-03-24 21:00:00,43.2,14.6,29.32,NNE,12,0.0,0.0,31,0.00,,SCT070,0.00,VWS V14.00,2013-03-25 04:00:00,
2013-03-24 21:02:00,43.2,14.6,29.32,NNE,12,0.0,0.0,31,0.00,,OVC065,0.00,VWS V14.00,2013-03-25 04:02:00,
2013-03-24 21:06:00,43.2,14.6,29.32,NNE,12,0.0,0.0,31,0.00,,OVC065,0.00,VWS V14.00,2013-03-25 04:06:00,
2013-03-24 21:07:00,43.2,14.6,29.32,NNE,12,0.0,0.0,31,0.00,,OVC065,0.00,VWS V14.00,2013-03-25 04:07:00,
2013-03-24 21:13:00,43.2,14.6,29.32,NNE,12,0.0,0.0,31,0.00,,OVC065,0.00,VWS V14.00,2013-03-25 04:13:00,
2013-03-24 21:18:00,43.0,14.4,29.32,NNE,12,0.0,0.0,31,0.00,,OVC065,0.00,VWS V14.00,2013-03-25 04:18:00,
2013-03-24 21:23:00,43.0,13.7,29.32,NNE,12,0.0,0.0,30,0.00,,OVC065,0.00,VWS V14.00,2013-03-25 04:23:00,
2013-03-24 21:29:00,43.0,13.7,29.32,NNE,12,0.0,0.0,30,0.00,,OVC065,0.00,VWS V14.00,2013-03-25 04:29:00,
2013-03-24 21:34:00,43.0,13.7,29.32,NNE,12,0.0,0.0,30,0.00,,OVC065,0.00,VWS V14.00,2013-03-25 04:34:00,
2013-03-24 21:40:00,42.8,13.5,29.32,NNE,12,0.0,0.0,30,0.00,,OVC065,0.00,VWS V14.00,2013-03-25 04:40:00,
2013-03-24 21:47:00,42.4,14.0,29.32,NNE,12,0.0,0.0,31,0.00,,OVC065,0.00,VWS V14.00,2013-03-25 04:47:00,
2013-03-24 21:53:00,42.3,13.8,29.32,NNE,12,0.0,0.0,31,0.00,,OVC065,0.00,VWS V14.00,2013-03-25 04:53:00,
2013-03-24 21:58:00,42.1,13.6,29.32,NNE,12,0.0,0.0,31,0.00,,OVC065,0.00,VWS V14.00,2013-03-25 04:58:00,
2013-03-24 22:04:00,41.7,13.3,29.32,NNE,12,0.0,0.0,31,0.00,,OVC065,0.00,VWS V14.00,2013-03-25 05:04:00,
2013-03-24 22:09:00,41.5,13.9,29.32,NNE,12,0.0,0.0,32,0.00,,OVC065,0.00,VWS V14.00,2013-03-25 05:09:00,
2013-03-24 22:15:00,41.2,13.6,29.32,NNE,12,0.0,0.0,32,0.00,,OVC065,0.00,VWS V14.00,2013-03-25 05:15:00,
2013-03-24 22:20:00,40.8,14.0,29.32,NNE,12,0.0,0.0,33,0.00,,OVC065,0.00,VWS V14.00,2013-03-25 05:20:00,
2013-03-24 22:26:00,40.6,13.8,29.32,NNE,12,0.0,0.0,33,0.00,,OVC065,0.00,VWS V14.00,2013-03-25 05:26:00,
2013-03-24 22:33:00,40.5,13.6,29.32,NNE,12,0.0,0.0,33,0.00,,OVC065,0.00,VWS V14.00,2013-03-25 05:33:00,
2013-03-24 22:39:00,40.5,14.3,29.32,NNE,12,0.0,0.0,34,0.00,,OVC065,0.00,VWS V14.00,2013-03-25 05:39:00,
2013-03-24 22:44:00,40.5,14.3,29.32,NNE,12,0.0,0.0,34,0.00,,OVC065,0.00,VWS V14.00,2013-03-25 05:44:00,
2013-03-24 22:50:00,40.6,14.5,29.32,NNE,12,0.0,0.0,34,0.00,,OVC065,0.00,VWS V14.00,2013-03-25 05:50:00,
2013-03-24 22:56:00,40.6,15.1,29.32,NNE,12,0.0,0.0,35,0.00,,OVC065,0.00,VWS V14.00,2013-03-25 05:56:00,
2013-03-24 23:02:00,40.6,15.1,29.32,NNE,12,0.0,0.0,35,0.00,,OVC065,0.00,VWS V14.00,2013-03-25 06:02:00,
2013-03-24 23:07:00,40.6,15.1,29.32,NNE,12,0.0,0.0,35,0.00,,OVC065,0.00,VWS V14.00,2013-03-25 06:07:00,
2013-03-24 23:12:00,40.8,15.3,29.32,NNE,12,0.0,0.0,35,0.00,,OVC065,0.00,VWS V14.00,2013-03-25 06:12:00,
2013-03-24 23:18:00,40.8,14.6,29.32,NNE,12,0.0,0.0,34,0.00,,OVC065,0.00,VWS V14.00,2013-03-25 06:18:00,
2013-03-24 23:24:00,40.8,14.0,29.32,NNE,12,0.0,0.0,33,0.00,,OVC065,0.00,VWS V14.00,2013-03-25 06:24:00,
2013-03-24 23:30:00,40.8,14.0,29.32,NNE,12,0.0,0.0,33,0.00,,OVC065,0.00,VWS V14.00,2013-03-25 06:30:00,
2013-03-24 23:36:00,40.6,13.8,29.32,NNE,12,0.0,0.0,33,0.00,,OVC065,0.00,VWS V14.00,2013-03-25 06:36:00,
2013-03-24 23:42:00,40.6,13.8,29.32,NNE,12,0.0,0.0,33,0.00,,OVC065,0.00,VWS V14.00,2013-03-25 06:42:00,
2013-03-24 23:47:00,40.6,13.8,29.32,NNE,12,0.0,0.0,33,0.00,,OVC065,0.00,VWS V14.00,2013-03-25 06:47:00,
2013-03-24 23:53:00,40.6,14.5,29.32,NNE,12,0.0,0.0,34,0.00,,OVC065,0.00,VWS V14.00,2013-03-25 06:53:00,
2013-03-24 23:59:00,40.5,14.3,29.32,NNE,12,0.0,0.0,34,0.00,,OVC065,0.00,VWS V14.00,2013-03-25 06:59:00,